Weather History for Macomb, IL

Change the Weather History Date:

Wednesday, December 4, 2013

  Actual Average (KBRL) Record (KBRL)
Temperature  
Mean Temperature 42 °F 33 °F  
Max Temperature 54 °F 41 °F 73 °F (1998)
Min Temperature 29 °F 25 °F -3 °F (1991)
Degree Days  
Heating Degree Days 23 32  
Month to date heating degree days 126  
Since 1 July heating degree days 1199  
Cooling Degree Days 0 0  
Month to date cooling degree days 0  
Year to date cooling degree days 1207  
Moisture  
Dew Point 44 °F    
Average Humidity 96    
Maximum Humidity 100    
Minimum Humidity 83    
Precipitation  
Precipitation 0.00 in 0.07 in 0.62 in (1999)
Month to date precipitation 0.31  
Year to date precipitation 36.70  
Sea Level Pressure  
Sea Level Pressure 29.65 in    
Wind  
Wind Speed 8 mph (South)    
Max Wind Speed 28 mph    
Max Gust Speed 33 mph    
Visibility 3 miles    
Events Fog    
T = Trace of Precipitation, MM = Missing Value Source: NWS Daily Summary

Daily Weather History Graph

Daily Weather History Graph

Search for Another Location

Airport:

Trip Planner

Search our weather history database for the weather conditions in past years. The results will help you decide how hot, cold, wet, or windy it might be!

Date:

Astronomy

Dec. 04, 2013 Rise Set
Actual Time 7:09 AM CST 4:35 PM CST
Civil Twilight 6:39 AM CST 5:06 PM CST
Nautical Twilight 6:05 AM CST 5:40 PM CST
Astronomical Twilight 5:32 AM CST 6:13 PM CST
Moon 8:38 AM CST (12/4) 6:46 PM CST (12/4)
Length of Visible Light 10h 26m
Length of Day
9h 25m
Waxing Crescent, 4% of the Moon is Illuminated
Dec 4
Waxing Crescent
Dec 9
First Quarter
Dec 17
Full
Dec 25
Last Quarter
Jan 1
New

Hourly Weather History & Observations

Time (CST) Temp. Windchill Dew Point Humidity Pressure Visibility Wind Dir Wind Speed Gust Speed Precip Events Conditions
12:09 AM 42.8 °F 39.3 °F 42.8 °F 100% 29.69 in 0.2 mi South 5.8 mph - N/A Fog Fog
12:15 AM 42.3 °F 38.6 °F 42.3 °F 100% 29.69 in 0.2 mi South 5.8 mph - N/A Fog Fog
12:35 AM 42.3 °F 38.6 °F 42.3 °F 100% 29.69 in 0.2 mi South 5.8 mph - N/A Fog Fog
12:49 AM 42.8 °F 38.0 °F 42.8 °F 100% 29.69 in 0.2 mi South 8.1 mph - N/A Fog Fog
12:55 AM 42.6 °F 38.4 °F 42.6 °F 100% 29.69 in 0.2 mi South 6.9 mph - N/A Fog Fog
1:09 AM 42.8 °F 39.3 °F 42.8 °F 100% 29.69 in 0.2 mi SSE 5.8 mph - N/A Fog Fog
1:15 AM 41.9 °F 38.2 °F 41.9 °F 100% 29.69 in 0.2 mi SSE 5.8 mph - N/A Fog Fog
1:28 AM 41.0 °F - 41.0 °F 100% 29.69 in 0.2 mi Calm Calm - N/A Fog Fog
1:35 AM 40.3 °F - 40.3 °F 100% 29.69 in 0.2 mi Calm Calm - N/A Fog Fog
1:55 AM 40.1 °F - 40.1 °F 100% 29.69 in 0.2 mi Calm Calm - N/A Fog Fog
2:15 AM 40.8 °F 38.8 °F 40.8 °F 100% 29.69 in 0.2 mi SE 3.5 mph - N/A Fog Fog
2:35 AM 42.1 °F 39.2 °F 42.1 °F 100% 29.68 in 0.2 mi SSE 4.6 mph - N/A Fog Fog
2:48 AM 42.8 °F 39.3 °F 42.8 °F 100% 29.68 in 0.2 mi SSE 5.8 mph - N/A Fog Fog
2:55 AM 43.7 °F 40.3 °F 43.7 °F 100% 29.68 in 0.2 mi SSE 5.8 mph - N/A Fog Fog
3:09 AM 44.6 °F 42.2 °F 44.6 °F 100% 29.67 in 0.8 mi SSE 4.6 mph - N/A   Overcast
3:15 AM 44.2 °F 41.8 °F 44.2 °F 100% 29.67 in 0.8 mi SSE 4.6 mph - N/A   Overcast
3:28 AM 44.6 °F 43.1 °F 44.6 °F 100% 29.66 in 0.5 mi SSE 3.5 mph - N/A Fog Fog
3:35 AM 44.6 °F 43.1 °F 44.6 °F 100% 29.66 in 0.5 mi SSE 3.5 mph - N/A Fog Fog
3:55 AM 44.1 °F 42.5 °F 44.1 °F 100% 29.66 in 0.5 mi South 3.5 mph - N/A Fog Fog
4:15 AM 44.2 °F 41.8 °F 44.2 °F 100% 29.66 in 0.5 mi SSE 4.6 mph - N/A Fog Fog
4:29 AM 44.6 °F 43.1 °F 44.6 °F 100% 29.66 in 0.5 mi SE 3.5 mph - N/A Fog Fog
4:35 AM 44.6 °F 42.2 °F 44.6 °F 100% 29.67 in 0.5 mi SSE 4.6 mph - N/A Fog Fog
4:49 AM 44.6 °F 41.4 °F 44.6 °F 100% 29.66 in 0.5 mi SSE 5.8 mph - N/A Fog Fog
4:55 AM 44.8 °F 41.0 °F 44.8 °F 100% 29.66 in 0.5 mi SE 6.9 mph - N/A Fog Fog
5:09 AM 44.6 °F 40.7 °F 44.6 °F 100% 29.65 in 0.5 mi SE 6.9 mph - N/A Fog Fog
5:15 AM 45.1 °F 40.8 °F 45.1 °F 100% 29.65 in 0.5 mi SE 8.1 mph - N/A Fog Fog
5:35 AM 45.5 °F 41.8 °F 45.5 °F 100% 29.65 in 0.5 mi SE 6.9 mph - N/A Fog Fog
5:48 AM 46.4 °F 43.5 °F 46.4 °F 100% 29.65 in 0.5 mi SE 5.8 mph - N/A Fog Fog
5:55 AM 45.7 °F 41.5 °F 45.7 °F 100% 29.64 in 0.5 mi SE 8.1 mph - N/A Fog Fog
6:15 AM 45.7 °F 41.5 °F 45.7 °F 100% 29.63 in 0.5 mi SE 8.1 mph - N/A Fog Fog
6:28 AM 46.4 °F 42.4 °F 46.4 °F 100% 29.63 in 0.5 mi SE 8.1 mph - N/A Fog Fog
6:35 AM 45.9 °F 42.3 °F 45.9 °F 100% 29.63 in 0.5 mi SE 6.9 mph - N/A Fog Fog
6:55 AM 45.9 °F 41.7 °F 45.9 °F 100% 29.64 in 0.5 mi SSE 8.1 mph - N/A Fog Fog
7:15 AM 45.9 °F 42.3 °F 45.9 °F 100% 29.65 in 0.5 mi SSE 6.9 mph - N/A Fog Fog
7:35 AM 45.9 °F 42.3 °F 45.9 °F 100% 29.64 in 0.2 mi SE 6.9 mph - N/A Fog Fog
7:55 AM 46.2 °F 43.3 °F 46.2 °F 100% 29.63 in 0.2 mi SE 5.8 mph - N/A Fog Fog
8:15 AM 46.4 °F 43.5 °F 46.4 °F 100% 29.63 in 0.2 mi SE 5.8 mph - N/A Fog Fog
8:35 AM 46.9 °F - 46.9 °F 100% 29.64 in 0.2 mi SE 8.1 mph - N/A Fog Fog
8:55 AM 47.3 °F - 47.3 °F 100% 29.65 in 0.2 mi SSE 5.8 mph - N/A Fog Fog
9:15 AM 47.7 °F - 47.7 °F 100% 29.64 in 0.2 mi SE 6.9 mph - N/A Fog Fog
9:35 AM 48.2 °F - 48.2 °F 100% 29.63 in 0.2 mi SE 4.6 mph - N/A Fog Fog
9:55 AM 48.7 °F - 48.7 °F 100% 29.62 in 0.5 mi SE 9.2 mph - N/A Fog Fog
10:15 AM 49.5 °F - 49.5 °F 100% 29.60 in 1.0 mi SE 10.4 mph - N/A   Overcast
10:35 AM 50.0 °F - 50.0 °F 100% 29.60 in 1.0 mi SE 6.9 mph - N/A   Overcast
10:55 AM 50.7 °F - 50.7 °F 100% 29.59 in 1.0 mi SSE 8.1 mph - N/A   Overcast
11:15 AM 51.1 °F - 51.1 °F 100% 29.58 in 0.8 mi SSE 8.1 mph - N/A   Overcast
11:35 AM 51.3 °F - 51.3 °F 100% 29.57 in 0.5 mi SSE 8.1 mph - N/A Fog Fog
11:55 AM 51.4 °F - 51.4 °F 100% 29.56 in 0.5 mi SSE 9.2 mph - N/A Fog Fog
12:15 PM 51.8 °F - 51.8 °F 100% 29.54 in 0.8 mi SSE 6.9 mph - N/A   Overcast
12:35 PM 52.0 °F - 52.0 °F 100% 29.53 in 0.5 mi SSE 8.1 mph - N/A Fog Fog
12:55 PM 52.2 °F - 52.2 °F 100% 29.53 in 0.8 mi South 6.9 mph - N/A   Overcast
1:15 PM 52.7 °F - 52.7 °F 100% 29.52 in 1.5 mi SSW 6.9 mph - N/A   Overcast
1:35 PM 53.2 °F - 53.2 °F 100% 29.52 in 2.0 mi South 5.8 mph - N/A   Overcast
1:55 PM 53.6 °F - 53.6 °F 100% 29.52 in 2.5 mi South 8.1 mph - N/A   Overcast
2:15 PM 53.6 °F - 53.6 °F 100% 29.52 in 4.0 mi South 8.1 mph - N/A   Overcast
2:35 PM 53.6 °F - 53.6 °F 100% 29.52 in 4.0 mi South 6.9 mph - N/A   Overcast
2:55 PM 53.6 °F - 53.6 °F 100% 29.53 in 4.0 mi South 9.2 mph - N/A   Overcast
3:15 PM 53.6 °F - 53.6 °F 100% 29.54 in 5.0 mi SSW 8.1 mph - N/A   Overcast
3:35 PM 54.5 °F - 54.5 °F 100% 29.55 in 5.0 mi SSW 6.9 mph - N/A   Overcast
3:55 PM 54.7 °F - 54.7 °F 100% 29.55 in 4.0 mi SSW 5.8 mph - N/A   Overcast
4:15 PM 54.5 °F - 52.7 °F 94% 29.57 in 4.0 mi SW 5.8 mph - N/A   Overcast
4:35 PM 53.6 °F - 52.0 °F 94% 29.58 in 4.0 mi SW 4.6 mph - N/A   Overcast
4:55 PM 54.0 °F - 51.3 °F 91% 29.59 in 7.0 mi WSW 9.2 mph - N/A   Overcast
5:15 PM 54.7 °F - 50.2 °F 85% 29.60 in 10.0 mi WSW 16.1 mph - N/A   Overcast
5:35 PM 53.6 °F - 48.7 °F 84% 29.62 in 10.0 mi West 23.0 mph 29.9 mph N/A   Overcast
5:55 PM 48.2 °F - 45.3 °F 90% 29.64 in 7.0 mi West 27.6 mph 33.4 mph N/A   Overcast
6:15 PM 45.3 °F 36.7 °F 42.6 °F 90% 29.67 in 7.0 mi West 24.2 mph 29.9 mph N/A   Overcast
6:35 PM 44.2 °F 36.4 °F 41.2 °F 89% 29.68 in 10.0 mi West 18.4 mph 25.3 mph N/A   Overcast
6:55 PM 42.8 °F 34.0 °F 38.5 °F 85% 29.70 in 10.0 mi West 20.7 mph 32.2 mph N/A   Overcast
7:15 PM 41.4 °F 32.1 °F 37.4 °F 86% 29.71 in 10.0 mi West 20.7 mph 25.3 mph N/A   Overcast
7:35 PM 39.9 °F 30.5 °F 35.6 °F 85% 29.71 in 10.0 mi West 19.6 mph - N/A   Overcast
7:55 PM 38.8 °F 30.0 °F 34.9 °F 86% 29.72 in 10.0 mi West 16.1 mph - N/A   Overcast
8:15 PM 37.8 °F 27.4 °F 32.9 °F 83% 29.75 in 10.0 mi West 20.7 mph - N/A   Overcast
8:35 PM 37.0 °F 28.1 °F 32.5 °F 84% 29.73 in 10.0 mi West 15.0 mph 18.4 mph N/A   Overcast
8:55 PM 36.5 °F 26.0 °F 32.5 °F 86% 29.76 in 10.0 mi West 19.6 mph 24.2 mph N/A   Overcast
9:15 PM 35.8 °F 24.5 °F 31.8 °F 86% 29.79 in 10.0 mi West 21.9 mph 27.6 mph N/A   Overcast
9:35 PM 34.7 °F 23.7 °F 30.7 °F 85% 29.80 in 10.0 mi West 19.6 mph 27.6 mph N/A   Overcast
9:55 PM 33.4 °F 21.7 °F 29.8 °F 87% 29.82 in 10.0 mi West 20.7 mph 26.5 mph N/A   Overcast
10:15 PM 32.2 °F 20.4 °F 28.9 °F 88% 29.83 in 10.0 mi West 19.6 mph 23.0 mph N/A   Overcast
10:35 PM 31.8 °F 19.9 °F 28.0 °F 86% 29.83 in 10.0 mi West 19.6 mph - N/A   Overcast
10:55 PM 31.5 °F 19.8 °F 27.7 °F 86% 29.84 in 10.0 mi West 18.4 mph 26.5 mph N/A   Overcast
11:15 PM 30.2 °F 17.4 °F 26.2 °F 85% 29.85 in 10.0 mi West 20.7 mph - N/A   Overcast
11:55 PM 29.1 °F 16.0 °F 25.2 °F 85% 29.87 in 10.0 mi West 20.7 mph 25.3 mph N/A   Overcast